Time[GMT],current_speed[cm/s](2m),current_direction[angular_degrees](2m),temperature[C](2m),current_u[cm/s](2m),current_v[cm/s](2m)
2007-03-27 00:00,47.51,101.7,1.48,46.52,-9.67
2007-03-27 01:00,51.91,96.8,1.54,51.55,-6.17
2007-03-27 02:00,66.87,111.6,1.75,62.18,-24.61
2007-03-27 03:00,78.60,133.7,1.95,56.79,-54.35
2007-03-27 04:00,38.72,135.8,2.11,26.97,-27.78
2007-03-27 05:00,7.33,180.5,2.08,-0.06,-7.33
2007-03-27 06:00,27.86,283.5,2.11,-27.09,6.51
2007-03-27 07:00,51.62,278.2,2.01,-51.09,7.40
2007-03-27 08:00,64.82,288.8,1.65,-61.36,20.88
2007-03-27 09:00,63.35,300.7,1.68,-54.45,32.39
2007-03-27 10:00,53.38,310.6,1.68,-40.53,34.73
2007-03-27 12:00,27.57,7.5,1.78,3.61,27.33
2007-03-27 13:00,31.38,45.8,1.75,22.51,21.86
2007-03-27 14:00,62.47,93.7,1.54,62.35,-3.98
2007-03-27 15:00,71.86,98.6,1.41,71.05,-10.72
2007-03-27 16:00,50.74,92.3,1.34,50.70,-1.99
2007-03-27 17:00,31.97,112.6,1.44,29.51,-12.31
2007-03-27 18:00,9.68,90.1,1.54,9.68,-0.02
2007-03-27 19:00,15.25,279.3,1.58,-15.05,2.47
2007-03-27 20:00,48.39,276.1,1.75,-48.12,5.17
2007-03-27 21:00,55.73,282.5,1.65,-54.41,12.03
2007-03-27 22:00,60.13,288.4,1.61,-57.04,19.02
2007-03-27 23:00,39.60,274.7,1.65,-39.46,3.27
2007-03-28 00:00,35.20,271.6,1.75,-35.18,0.96
2007-03-28 01:00,27.57,246.3,1.75,-25.24,-11.10
2007-03-28 02:00,8.21,239.9,1.75,-7.11,-4.12
2007-03-28 03:00,21.12,107.7,1.75,20.12,-6.43
2007-03-28 04:00,39.30,117.9,1.48,34.73,-18.40
2007-03-28 05:00,19.36,104.9,1.34,18.71,-4.98
2007-03-28 06:00,1.47,359.1,1.41,-0.02,1.47
2007-03-28 07:00,30.80,273.7,1.34,-30.73,1.97
2007-03-28 08:00,40.18,260.3,1.48,-39.61,-6.76
2007-03-28 09:00,100.90,308.1,1.08,-79.36,62.30
2007-03-28 10:00,80.36,314.1,1.34,-57.70,55.94
2007-03-28 11:00,44.87,340.8,1.81,-14.73,42.39
2007-03-28 12:00,24.34,63.8,1.98,21.84,10.76
2007-03-28 13:00,37.54,123.2,2.01,31.42,-20.55
2007-03-28 14:00,45.46,146.7,1.95,24.93,-38.02
2007-03-28 15:00,39.60,148.2,1.98,20.89,-33.64
2007-03-28 16:00,51.62,137.3,2.01,35.04,-37.91
2007-03-28 17:00,46.93,140.8,1.78,29.68,-36.35
2007-03-28 18:00,41.65,153.8,1.71,18.40,-37.36
2007-03-28 19:00,32.85,186.1,1.78,-3.51,-32.66
2007-03-28 20:00,53.67,252.6,1.88,-51.21,-16.07
2007-03-28 21:00,58.95,274.4,1.51,-58.78,4.50
2007-03-28 22:00,61.89,292.0,1.21,-57.40,23.14
2007-03-28 23:00,61.59,301.8,1.28,-52.34,32.46
2007-03-29 00:00,25.52,334.9,1.41,-10.84,23.10
2007-03-29 01:00,13.79,109.1,1.44,13.02,-4.52
2007-03-29 03:00,32.26,159.4,1.41,11.35,-30.20
2007-03-29 04:00,48.69,162.2,1.41,14.87,-46.36
2007-03-29 05:00,49.57,168.2,1.44,10.14,-48.52
2007-03-29 06:00,34.61,189.6,1.54,-5.80,-34.12
2007-03-29 07:00,50.15,216.7,1.68,-29.99,-40.20
2007-03-29 08:00,68.05,237.1,1.54,-57.14,-36.95
2007-03-29 09:00,100.31,255.0,1.44,-96.91,-25.89
2007-03-29 10:00,106.17,272.6,1.41,-106.06,4.86
2007-03-29 11:00,81.54,287.4,1.95,-77.81,24.37
2007-03-29 12:00,42.53,300.7,2.21,-36.55,21.74
2007-03-29 13:00,12.91,358.0,2.44,-0.45,12.90
2007-03-29 14:00,25.81,119.0,2.48,22.58,-12.50
2007-03-29 15:00,39.60,133.4,2.48,28.77,-27.20
2007-03-29 16:00,36.08,144.6,2.34,20.88,-29.42
2007-03-29 17:00,46.93,150.6,2.25,23.03,-40.89
2007-03-29 18:00,49.27,149.2,2.18,25.22,-42.33
2007-03-29 19:00,36.08,167.8,2.11,7.60,-35.27
2007-03-29 20:00,45.75,190.3,2.11,-8.22,-45.01
2007-03-29 21:00,54.85,242.4,2.01,-48.60,-25.42
2007-03-29 22:00,78.31,260.7,1.95,-77.27,-12.70
2007-03-29 23:00,73.62,281.8,2.28,-72.07,15.01
2007-03-30 00:00,59.83,316.2,2.28,-41.40,43.20
2007-03-30 01:00,30.50,341.2,2.25,-9.84,28.87
2007-03-30 03:00,37.54,124.9,2.28,30.77,-21.51
2007-03-30 04:00,45.46,119.0,2.25,39.77,-22.02
2007-03-30 05:00,49.57,129.9,2.34,38.04,-31.78
2007-03-30 06:00,43.70,140.1,2.34,28.05,-33.51
2007-03-30 07:00,34.90,156.2,2.38,14.06,-31.94
2007-03-30 08:00,31.68,177.0,2.28,1.67,-31.63
2007-03-30 09:00,36.08,213.2,2.25,-19.75,-30.19
2007-03-30 10:00,89.16,263.5,1.88,-88.59,-10.12
2007-03-30 11:00,88.58,284.2,1.61,-85.86,21.77
2007-03-30 12:00,76.26,307.8,1.65,-60.27,46.72
2007-03-30 13:00,54.26,349.9,1.71,-9.48,53.43
2007-03-30 14:00,41.65,39.2,1.81,26.30,32.29
2007-03-30 15:00,47.22,90.5,1.95,47.22,-0.41
2007-03-30 16:00,26.98,115.1,2.15,24.43,-11.45
2007-03-30 17:00,70.10,98.9,2.25,69.25,-10.88
2007-03-30 18:00,70.69,102.4,2.44,69.02,-15.24
2007-03-30 19:00,55.14,109.5,2.48,51.98,-18.39
2007-03-30 20:00,37.25,101.0,2.44,36.56,-7.13
2007-03-30 21:00,21.12,147.8,2.51,11.25,-17.87
2007-03-30 22:00,30.80,228.7,2.44,-23.13,-20.34
2007-03-30 23:00,32.56,239.9,2.31,-28.17,-16.32
2007-03-31 00:00,60.71,260.3,1.95,-59.85,-10.21
2007-03-31 01:00,26.98,281.4,2.15,-26.45,5.34
2007-03-31 03:00,12.32,127.1,2.31,9.83,-7.42
2007-03-31 04:00,22.00,151.7,2.34,10.44,-19.36
2007-03-31 05:00,30.21,135.5,2.34,21.18,-21.55
2007-03-31 06:00,42.82,130.2,2.28,32.70,-27.65
2007-03-31 07:00,25.81,143.9,2.21,15.19,-20.86
2007-03-31 08:00,25.81,185.8,2.11,-2.60,-25.68
2007-03-31 09:00,31.97,220.6,2.11,-20.80,-24.28
2007-03-31 10:00,36.37,262.4,2.28,-36.05,-4.79
2007-03-31 11:00,35.78,260.3,2.34,-35.27,-6.02
2007-03-31 12:00,75.38,273.3,2.18,-75.25,4.37
2007-03-31 13:00,85.64,300.0,1.48,-74.13,42.88
2007-03-31 14:00,39.30,339.4,1.31,-13.81,36.80
2007-03-31 15:00,28.74,16.0,1.44,7.90,27.64
2007-03-31 16:00,21.70,99.6,1.75,21.40,-3.63
2007-03-31 17:00,48.69,127.4,2.08,38.67,-29.58
2007-03-31 18:00,60.13,106.0,2.11,57.81,-16.54
2007-03-31 19:00,47.51,114.1,2.28,43.39,-19.36
2007-03-31 21:00,17.30,188.9,2.34,-2.69,-17.09
2007-03-31 22:00,13.20,233.9,2.31,-10.67,-7.77
2007-03-31 23:00,28.45,261.7,2.28,-28.15,-4.10
2007-04-01 00:00,57.49,264.9,2.01,-57.26,-5.12
2007-04-01 01:00,94.44,302.5,1.24,-79.65,50.75
2007-04-01 02:00,65.11,319.0,1.21,-42.69,49.17
2007-04-01 03:00,56.02,353.5,1.21,-6.39,55.65
2007-04-01 04:00,30.80,31.4,1.34,16.06,26.28
2007-04-01 05:00,48.98,68.3,1.34,45.52,18.08
2007-04-01 06:00,72.45,79.9,1.75,71.33,12.65
2007-04-01 07:00,70.10,101.0,2.15,68.80,-13.42
2007-04-01 08:00,49.27,122.1,2.21,41.72,-26.21
2007-04-01 09:00,23.76,128.8,2.28,18.51,-14.89
2007-04-01 10:00,11.15,242.4,2.31,-9.88,-5.17
2007-04-01 11:00,20.82,273.0,2.25,-20.80,1.08
2007-04-01 12:00,58.95,259.6,2.18,-57.99,-10.63
2007-04-01 13:00,59.83,265.9,2.11,-59.68,-4.24
2007-04-01 14:00,38.13,288.1,1.91,-36.24,11.84
2007-04-01 15:00,42.53,306.4,2.05,-34.24,25.22
2007-04-01 16:00,26.10,323.6,1.75,-15.49,21.01
2007-04-01 17:00,14.08,37.8,1.81,8.62,11.13
2007-04-01 18:00,34.61,75.4,2.38,33.49,8.74
2007-04-01 19:00,55.14,100.0,2.15,54.31,-9.56
2007-04-01 20:00,52.50,93.0,2.05,52.43,-2.71
2007-04-01 21:00,36.08,98.6,2.21,35.67,-5.38
2007-04-01 22:00,3.81,66.6,2.31,3.50,1.52
2007-04-01 23:00,40.18,299.0,2.21,-35.15,19.48
2007-04-02 00:00,60.42,321.5,2.18,-37.62,47.28
2007-04-02 01:00,59.54,313.4,1.71,-43.26,40.91
2007-04-02 02:00,48.98,313.4,1.61,-35.58,33.66
2007-04-02 03:00,29.62,318.7,1.58,-19.56,22.25
2007-04-02 04:00,36.66,357.0,1.58,-1.94,36.61
2007-04-02 05:00,41.65,61.7,1.61,36.66,19.77
2007-04-02 06:00,42.53,110.9,1.51,39.73,-15.16
2007-04-02 07:00,25.81,90.5,1.54,25.81,-0.22
2007-04-02 08:00,39.30,100.7,1.41,38.62,-7.29
2007-04-02 09:00,27.28,79.9,1.65,26.86,4.76
2007-04-02 10:00,20.53,313.4,1.65,-14.92,14.11
2007-04-02 11:00,44.87,304.6,1.51,-36.93,25.49
2007-04-02 12:00,42.24,307.4,1.54,-33.54,25.67
2007-04-02 13:00,61.59,288.8,1.54,-58.31,19.84
2007-04-02 14:00,69.51,290.6,1.48,-65.09,24.40
2007-04-02 15:00,47.81,322.2,1.58,-29.30,37.77
2007-04-02 16:00,56.61,358.0,1.54,-1.95,56.57
2007-04-02 17:00,42.82,51.1,1.48,33.33,26.88
2007-04-02 18:00,53.67,82.1,1.48,53.16,7.42
2007-04-02 19:00,52.79,107.0,1.61,50.48,-15.45
2007-04-02 20:00,38.13,116.5,1.61,34.12,-17.02
2007-04-02 21:00,14.66,115.1,1.54,13.28,-6.22
2007-04-02 22:00,15.25,261.0,1.54,-15.06,-2.38
2007-04-02 23:00,45.17,285.3,1.58,-43.57,11.90
2007-04-03 00:00,61.59,285.6,1.58,-59.32,16.60
2007-04-03 01:00,65.41,282.5,1.58,-63.86,14.12
2007-04-03 02:00,69.81,293.7,1.48,-63.91,28.08
2007-04-03 03:00,71.27,321.8,1.24,-44.03,56.04
2007-04-03 04:00,47.51,342.2,1.28,-14.52,45.24
2007-04-03 05:00,32.85,34.2,1.24,18.48,27.16
2007-04-03 06:00,37.25,72.6,1.14,35.54,11.16
2007-04-03 07:00,53.67,113.3,1.14,49.28,-21.27
2007-04-03 08:00,49.57,117.2,1.24,44.08,-22.67
2007-04-03 09:00,31.68,146.7,1.34,17.37,-26.49
2007-04-03 10:00,13.49,205.1,1.38,-5.73,-12.22
2007-04-03 12:00,49.57,287.4,1.34,-47.30,14.81
2007-04-03 13:00,63.65,282.8,1.24,-62.06,14.12
2007-04-03 15:00,98.26,313.8,0.77,-70.97,67.96
2007-04-03 16:00,60.42,325.4,0.84,-34.34,49.71
2007-04-03 17:00,26.98,15.3,0.97,7.10,26.03
2007-04-03 18:00,31.97,52.2,1.04,25.25,19.61
2007-04-03 19:00,34.02,115.5,1.14,30.72,-14.62
2007-04-03 20:00,42.24,122.1,1.21,35.76,-22.47
2007-04-03 21:00,9.97,180.2,1.28,-0.03,-9.97
2007-04-03 22:00,14.08,261.7,1.28,-13.93,-2.03
2007-04-04 00:00,63.35,281.4,1.21,-62.10,12.53
2007-04-04 01:00,88.58,290.2,1.04,-83.13,30.59
2007-04-04 02:00,89.16,298.6,0.87,-78.25,42.74
2007-04-04 03:00,86.52,312.4,0.81,-63.94,58.29
2007-04-04 04:00,55.73,335.2,0.81,-23.37,50.59
2007-04-04 05:00,40.77,40.2,0.91,26.32,31.13
2007-04-04 06:00,52.21,96.8,0.97,51.84,-6.20
2007-04-04 07:00,65.99,122.1,1.01,55.88,-35.10
2007-04-04 08:00,51.62,142.9,1.01,31.15,-41.16
2007-04-04 09:00,40.18,158.0,1.01,15.05,-37.26
2007-04-04 10:00,19.06,191.4,1.01,-3.77,-18.69
2007-04-04 11:00,26.98,252.6,1.01,-25.75,-8.08
2007-04-04 12:00,55.14,269.8,1.01,-55.14,-0.18
2007-04-04 13:00,87.40,270.5,0.97,-87.40,0.78
2007-04-04 14:00,92.98,292.3,0.84,-86.02,35.30
2007-04-04 15:00,77.14,285.3,0.81,-74.41,20.33
2007-04-04 16:00,94.74,324.3,0.64,-55.27,76.94
2007-04-04 17:00,65.70,353.5,0.91,-7.49,65.27
2007-04-04 18:00,34.61,74.0,1.11,33.26,9.56
2007-04-04 19:00,43.41,120.0,0.97,37.58,-21.72
2007-04-04 20:00,56.90,126.0,1.01,46.03,-33.45
2007-04-04 21:00,37.84,129.2,1.04,29.33,-23.90
2007-04-04 22:00,14.08,116.9,1.08,12.56,-6.36
2007-04-04 23:00,7.04,270.2,1.11,-7.04,0.02
2007-04-05 00:00,38.72,281.1,1.01,-38.00,7.43
2007-04-05 01:00,58.07,275.1,0.94,-57.85,5.15
2007-04-05 02:00,61.89,277.9,0.87,-61.30,8.50
2007-04-05 03:00,87.99,292.0,0.64,-81.61,32.90
2007-04-05 04:00,61.59,306.4,0.67,-49.59,36.53
2007-04-05 05:00,31.09,319.0,0.71,-20.38,23.48
2007-04-05 06:00,15.54,356.3,0.77,-1.01,15.51
2007-04-05 07:00,17.30,89.1,0.87,17.30,0.28
2007-04-05 08:00,31.97,107.4,0.91,30.51,-9.54
2007-04-05 09:00,32.85,140.8,0.97,20.77,-25.45
2007-04-05 10:00,31.38,147.1,0.94,17.05,-26.35
2007-04-05 11:00,12.32,213.9,0.94,-6.87,-10.22
2007-04-05 12:00,31.97,263.5,0.94,-31.76,-3.63
2007-04-05 13:00,57.49,283.5,1.04,-55.89,13.44
2007-04-05 14:00,83.88,298.6,0.97,-73.62,40.21
2007-04-05 15:00,78.60,296.5,0.84,-70.33,35.11
2007-04-05 16:00,96.50,315.5,0.84,-67.61,68.85
2007-04-05 17:00,46.63,5.8,0.94,4.68,46.40
2007-04-05 18:00,41.94,63.4,0.97,37.51,18.77
2007-04-05 20:00,62.77,118.3,1.24,55.28,-29.73
2007-04-05 21:00,66.87,128.5,1.21,52.36,-41.60
2007-04-05 22:00,54.26,133.4,1.18,39.43,-37.27
2007-04-05 23:00,34.32,165.0,1.14,8.86,-33.15
2007-04-06 00:00,25.81,194.9,1.11,-6.64,-24.94
2007-04-06 01:00,36.08,258.9,1.08,-35.40,-6.94
2007-04-06 02:00,69.51,267.7,1.08,-69.46,-2.79
2007-04-06 03:00,69.22,277.2,0.87,-68.67,8.67
2007-04-06 04:00,56.31,289.1,0.84,-53.20,18.47
2007-04-06 05:00,31.09,300.4,0.87,-26.82,15.73
2007-04-06 06:00,12.61,341.2,0.91,-4.07,11.94
2007-04-06 07:00,29.33,104.6,0.94,28.39,-7.37
2007-04-06 08:00,45.46,126.0,0.91,36.78,-26.72
2007-04-06 09:00,51.62,120.4,0.87,44.53,-26.11
2007-04-06 10:00,49.86,103.2,0.91,48.55,-11.34
2007-04-06 11:00,26.69,99.3,0.97,26.34,-4.31
2007-04-06 12:00,15.25,72.2,1.01,14.52,4.66
2007-04-06 14:00,11.44,269.5,1.04,-11.44,-0.11
2007-04-06 15:00,38.72,285.3,1.01,-37.35,10.20
2007-04-06 16:00,22.00,294.4,0.94,-20.03,9.09
2007-04-06 17:00,14.96,311.6,0.97,-11.18,9.94
2007-04-06 18:00,7.92,102.4,1.01,7.73,-1.71
2007-04-06 19:00,27.57,111.6,1.01,25.64,-10.14
2007-04-06 20:00,39.89,130.6,1.01,30.30,-25.95
2007-04-06 21:00,35.78,126.4,1.01,28.82,-21.21
2007-04-06 22:00,29.33,129.2,1.01,22.74,-18.53
2007-04-06 23:00,13.20,116.2,1.01,11.85,-5.82
2007-04-07 00:00,2.64,0.1,1.01,0.01,2.64
2007-04-07 01:00,21.41,318.0,1.01,-14.33,15.91
2007-04-07 02:00,33.14,304.3,1.01,-27.39,18.66
2007-04-07 03:00,49.27,290.9,1.01,-46.03,17.58
2007-04-07 04:00,44.87,296.9,1.08,-40.03,20.29
2007-04-07 05:00,16.72,340.5,1.18,-5.59,15.76
2007-04-07 06:00,8.21,39.5,1.21,5.22,6.34
2007-04-07 07:00,14.96,132.0,1.18,11.12,-10.01
2007-04-07 08:00,29.62,127.4,1.14,23.53,-18.00
2007-04-07 09:00,41.06,129.5,1.08,31.68,-26.13
2007-04-07 10:00,33.73,129.5,1.04,26.02,-21.46
2007-04-07 11:00,27.28,126.7,1.08,21.87,-16.30
2007-04-07 12:00,8.80,106.7,1.08,8.43,-2.52
2007-04-07 13:00,6.75,286.0,1.08,-6.49,1.86
2007-04-07 14:00,19.94,284.9,1.08,-19.27,5.14
2007-04-07 15:00,37.84,262.4,1.08,-37.51,-4.99
2007-04-07 16:00,73.32,293.4,1.18,-67.31,29.08
2007-04-07 17:00,49.57,297.2,1.28,-44.07,22.68
2007-04-07 18:00,17.60,261.4,1.38,-17.40,-2.64
2007-04-07 19:00,23.46,252.6,1.38,-22.39,-7.02
2007-04-07 20:00,17.01,205.5,1.41,-7.31,-15.36
2007-04-07 22:00,26.10,145.7,1.41,14.71,-21.56
2007-04-08 00:00,20.24,173.5,1.28,2.30,-20.11
2007-04-08 02:00,27.86,224.1,1.18,-19.39,-20.01
2007-04-08 04:00,70.69,272.6,1.14,-70.61,3.23
2007-04-08 05:00,50.15,317.6,0.94,-33.80,37.05
2007-04-08 06:00,26.10,4.4,0.87,1.98,26.03
2007-04-08 07:00,17.01,108.1,0.94,16.17,-5.28
2007-04-08 08:00,,,,,
2007-04-08 09:00,39.30,169.6,1.14,7.09,-38.66
2007-04-08 10:00,35.49,128.1,1.31,27.92,-21.90
2007-04-08 11:00,42.24,109.8,1.34,39.73,-14.33
2007-04-08 12:00,38.13,132.0,1.38,28.34,-25.50
2007-04-08 13:00,19.36,111.6,1.41,18.00,-7.12
2007-04-08 14:00,9.68,127.8,1.44,7.65,-5.93
2007-04-08 15:00,17.01,318.7,1.51,-11.23,12.78
2007-04-08 16:00,45.75,296.5,1.38,-40.94,20.44
2007-04-08 17:00,56.90,313.8,1.04,-41.10,39.35
2007-04-08 18:00,54.55,336.6,1.04,-21.65,50.07
2007-04-08 19:00,46.93,12.1,1.11,9.83,45.89
2007-04-08 20:00,,,,,
2007-04-08 21:00,35.20,85.6,1.11,35.09,2.72
2007-04-08 22:00,36.96,69.0,1.14,34.51,13.22
2007-04-08 23:00,54.26,96.1,1.34,53.95,-5.78
2007-04-09 00:00,49.27,79.2,1.54,48.41,9.20
2007-04-09 01:00,38.42,106.3,1.58,36.88,-10.79
2007-04-09 02:00,11.15,89.1,1.61,11.14,0.18
2007-04-09 03:00,8.21,283.5,1.58,-7.98,1.92
2007-04-09 04:00,44.29,279.0,1.48,-43.75,6.89
2007-04-09 05:00,59.25,287.7,1.18,-56.43,18.05
2007-04-09 06:00,53.67,285.3,1.14,-51.78,14.14
2007-04-09 07:00,28.16,266.6,1.21,-28.11,-1.65
2007-04-09 08:00,17.89,271.2,1.21,-17.89,0.38
2007-04-09 09:00,14.37,162.6,1.28,4.30,-13.71
2007-04-09 10:00,21.12,144.3,1.34,12.33,-17.15
2007-04-09 11:00,29.33,178.7,1.28,0.64,-29.32
2007-04-09 12:00,25.81,195.3,1.28,-6.80,-24.90
2007-04-09 13:00,32.85,225.5,1.34,-23.43,-23.02
2007-04-09 14:00,32.56,254.0,1.31,-31.29,-8.98
2007-04-09 15:00,50.74,269.5,1.38,-50.74,-0.48
2007-04-09 16:00,58.66,282.5,1.54,-57.28,12.66
2007-04-09 17:00,63.06,291.6,1.71,-58.63,23.22
2007-04-09 18:00,73.91,324.3,1.61,-43.12,60.03
2007-04-09 19:00,64.23,328.2,2.01,-33.87,54.58
2007-04-09 20:00,,,,,
2007-04-09 21:00,27.57,12.8,2.01,6.10,26.89
2007-04-09 22:00,25.81,81.7,1.95,25.54,3.72
2007-04-09 23:00,23.76,81.4,1.81,23.49,3.57
2007-04-10 00:00,14.66,98.2,1.75,14.51,-2.10
2007-04-10 01:00,3.23,19.1,1.78,1.06,3.05
2007-04-10 02:00,17.01,313.1,1.81,-12.43,11.61
2007-04-10 03:00,33.14,291.3,1.88,-30.89,12.02
2007-04-10 04:00,41.65,289.9,2.01,-39.17,14.14
2007-04-10 05:00,54.55,281.8,2.08,-53.41,11.12
2007-04-10 06:00,58.37,288.8,2.31,-55.25,18.80
2007-04-10 07:00,62.77,298.3,1.95,-55.27,29.75
2007-04-10 08:00,55.43,317.6,2.31,-37.36,40.95
2007-04-10 09:00,53.09,350.6,1.68,-8.64,52.38
2007-04-10 10:00,42.53,33.9,1.54,23.71,35.31
2007-04-10 11:00,31.09,62.7,2.11,27.63,14.25
2007-04-10 12:00,33.73,97.9,2.28,33.41,-4.62
2007-04-10 13:00,36.96,116.5,2.41,33.07,-16.50
2007-04-10 14:00,24.34,121.1,2.38,20.85,-12.57
2007-04-10 16:00,21.70,258.6,2.51,-21.27,-4.31
2007-04-10 17:00,34.90,279.3,2.61,-34.44,5.64
2007-04-10 18:00,33.14,281.4,2.74,-32.49,6.56
2007-04-10 19:00,43.41,284.2,2.41,-42.08,10.67
2007-04-10 20:00,51.91,300.7,1.48,-44.62,26.54
2007-04-10 21:00,29.04,327.8,1.61,-15.46,24.58
2007-04-10 22:00,62.18,57.4,1.38,52.41,33.46
2007-04-10 23:00,59.25,81.0,1.41,58.52,9.27
2007-04-11 00:00,64.82,101.7,1.58,63.46,-13.19
2007-04-11 01:00,54.85,105.6,2.21,52.82,-14.76
2007-04-11 02:00,32.85,140.8,2.61,20.77,-25.45
2007-04-11 03:00,16.72,180.2,2.54,-0.04,-16.72
2007-04-11 04:00,17.89,233.9,2.54,-14.46,-10.53
2007-04-11 05:00,31.38,257.5,2.54,-30.64,-6.79
2007-04-11 06:00,29.33,235.4,2.44,-24.13,-16.68
2007-04-11 07:00,41.36,320.8,1.41,-26.14,32.04
2007-04-11 08:00,48.69,333.1,0.91,-22.03,43.42
2007-04-11 09:00,38.13,1.5,0.87,1.02,38.12
2007-04-11 10:00,42.53,32.8,0.84,23.06,35.74
2007-04-11 11:00,49.27,76.8,0.97,47.97,11.27
2007-04-11 12:00,55.43,87.0,0.94,55.36,2.92
2007-04-11 13:00,55.73,94.4,0.97,55.57,-4.24
2007-04-11 14:00,47.51,107.0,0.97,45.43,-13.91
2007-04-11 15:00,33.44,102.4,1.04,32.65,-7.21
2007-04-11 16:00,4.40,137.6,1.18,2.97,-3.25
2007-04-11 17:00,7.04,223.4,1.24,-4.84,-5.11
2007-04-11 18:00,19.36,229.4,1.18,-14.69,-12.60
2007-04-11 19:00,60.71,286.7,1.31,-58.16,17.43
2007-04-11 20:00,61.30,304.6,1.28,-50.45,34.82
2007-04-11 21:00,53.67,310.6,1.18,-40.76,34.93
2007-04-11 22:00,32.85,344.7,1.04,-8.69,31.68
2007-04-11 23:00,29.33,37.4,1.08,17.81,23.30
2007-04-12 00:00,36.66,84.5,1.08,36.49,3.50
2007-04-12 01:00,38.42,86.6,1.18,38.36,2.26
2007-04-12 02:00,38.72,91.2,1.18,38.71,-0.81
2007-04-12 03:00,27.57,59.9,1.11,23.85,13.83
2007-04-12 04:00,14.96,10.3,1.11,2.68,14.72
2007-04-12 05:00,26.10,301.5,1.14,-22.27,13.62
2007-04-12 06:00,26.69,289.9,1.14,-25.10,9.06
2007-04-12 07:00,70.69,276.8,1.04,-70.18,8.42
2007-04-12 08:00,84.47,289.9,1.04,-79.45,28.68
2007-04-12 09:00,61.30,297.6,1.08,-54.33,28.39
2007-04-12 10:00,42.24,300.7,1.08,-36.30,21.59
2007-04-12 11:00,24.05,320.8,1.14,-15.20,18.64
2007-04-12 12:00,20.24,50.1,1.11,15.52,12.99
2007-04-12 13:00,30.21,88.4,1.21,30.20,0.85
2007-04-12 14:00,46.93,95.1,1.34,46.74,-4.14
2007-04-12 15:00,38.42,98.6,1.18,37.99,-5.73
2007-04-12 17:00,17.60,320.4,1.71,-11.21,13.57
2007-04-12 18:00,37.54,312.0,1.85,-27.90,25.12
2007-04-12 19:00,48.98,322.5,1.88,-29.78,38.88
2007-04-12 20:00,48.69,300.0,1.68,-42.15,24.38
2007-04-12 21:00,66.87,308.5,1.48,-52.35,41.62
2007-04-12 22:00,56.02,314.8,1.41,-39.74,39.48
2007-04-12 23:00,44.29,332.4,1.34,-20.52,39.25
2007-04-13 00:00,50.15,12.1,1.54,10.50,49.04
2007-04-13 01:00,45.17,60.6,1.38,39.35,22.17
2007-04-13 02:00,46.63,77.5,1.34,45.53,10.11
2007-04-13 03:00,35.49,88.0,1.28,35.47,1.22
2007-04-13 04:00,29.92,68.0,1.28,27.74,11.21
2007-04-13 05:00,20.53,24.4,1.41,8.48,18.70
2007-04-13 06:00,17.30,351.3,1.58,-2.61,17.11
2007-04-13 07:00,46.63,291.3,1.54,-43.46,16.91
2007-04-13 08:00,74.79,295.8,1.34,-67.32,32.58
2007-04-13 09:00,67.75,305.3,1.34,-55.28,39.17
2007-04-13 10:00,64.23,339.8,1.31,-22.20,60.27
2007-04-13 11:00,42.24,356.3,1.24,-2.75,42.15
2007-04-13 12:00,52.21,34.2,1.21,29.37,43.16
2007-04-13 13:00,69.51,81.4,1.31,68.72,10.45
2007-04-13 14:00,85.94,91.5,1.38,85.91,-2.32
2007-04-13 15:00,77.72,98.9,1.58,76.78,-12.07
2007-04-13 16:00,77.43,101.7,1.88,75.81,-15.76
2007-04-13 17:00,58.95,98.6,2.38,58.29,-8.79
2007-04-13 18:00,30.21,90.1,2.64,30.21,-0.07
2007-04-13 19:00,11.73,114.1,2.84,10.71,-4.78
2007-04-13 20:00,17.60,228.3,2.74,-13.14,-11.70
2007-04-13 21:00,53.97,262.8,2.05,-53.54,-6.79
2007-04-13 22:00,62.77,279.3,1.48,-61.94,10.15
2007-04-13 23:00,48.10,293.7,1.41,-44.04,19.35
2007-04-14 00:00,24.64,310.9,1.41,-18.61,16.15
2007-04-14 01:00,28.45,25.1,1.38,12.07,25.76
2007-04-14 02:00,33.73,56.4,1.34,28.09,18.67
2007-04-14 03:00,35.49,81.4,1.41,35.09,5.34
2007-04-14 04:00,39.60,94.4,1.41,39.48,-3.01
2007-04-14 06:00,29.92,90.1,1.41,29.92,-0.07
2007-04-14 07:00,4.69,126.7,1.51,3.76,-2.81
2007-04-14 08:00,14.08,218.1,1.44,-8.69,-11.08
2007-04-14 09:00,45.75,253.6,1.41,-43.90,-12.89
2007-04-14 10:00,56.61,264.9,1.41,-56.38,-5.05
2007-04-14 11:00,43.99,283.5,1.31,-42.78,10.29
2007-04-14 12:00,10.27,280.7,1.31,-10.09,1.91
2007-04-14 13:00,2.64,24.7,1.28,1.10,2.40
2007-04-14 14:00,20.24,125.7,1.28,16.44,-11.80
2007-04-14 15:00,34.90,111.9,1.28,32.37,-13.04
2007-04-14 16:00,55.14,123.2,1.31,46.14,-30.19
2007-04-14 17:00,41.94,119.3,1.31,36.57,-20.54
2007-04-14 18:00,34.61,125.3,1.34,28.25,-20.00
2007-04-14 19:00,17.01,165.4,1.38,4.29,-16.46
2007-04-14 20:00,27.57,262.4,1.38,-27.33,-3.63
2007-04-14 21:00,48.69,255.4,1.34,-47.11,-12.28
2007-04-14 22:00,76.84,275.1,1.34,-76.54,6.81
2007-04-14 23:00,58.66,291.6,1.34,-54.54,21.60
2007-04-15 00:00,52.50,321.8,1.28,-32.43,41.28
2007-04-15 01:00,22.29,2.6,1.31,1.01,22.27
2007-04-15 02:00,19.36,78.9,1.31,19.00,3.73
2007-04-15 03:00,47.81,101.7,1.28,46.81,-9.73
2007-04-15 04:00,83.30,115.5,1.14,75.21,-35.80
2007-04-15 05:00,85.35,121.1,1.14,73.10,-44.06
2007-04-15 06:00,60.13,132.0,1.14,44.70,-40.22
2007-04-15 07:00,38.13,151.0,1.18,18.50,-33.34
2007-04-15 08:00,29.62,193.9,1.18,-7.10,-28.76
2007-04-15 10:00,68.93,252.9,1.24,-65.89,-20.23
2007-04-15 11:00,68.34,253.6,1.24,-65.57,-19.25
2007-04-15 12:00,76.26,289.5,1.34,-71.88,25.45
2007-04-15 13:00,39.89,292.3,1.34,-36.90,15.14
2007-04-15 14:00,5.57,298.6,1.34,-4.89,2.67
2007-04-15 15:00,31.97,63.4,1.44,28.59,14.30
2007-04-15 16:00,58.95,88.4,1.41,58.93,1.66
2007-04-15 17:00,81.54,104.6,1.41,78.92,-20.49
2007-04-15 18:00,55.14,110.9,1.48,51.52,-19.66
2007-04-15 19:00,49.27,113.0,1.24,45.36,-19.25
2007-04-15 20:00,17.30,87.0,1.24,17.28,0.91
2007-04-15 21:00,16.72,289.5,1.21,-15.76,5.58
2007-04-15 22:00,30.50,276.1,1.21,-30.33,3.26
2007-04-15 23:00,47.22,273.0,1.24,-47.16,2.45
2007-04-16 00:00,,,,,
2007-04-16 01:00,29.62,288.8,1.31,-28.04,9.54
2007-04-16 03:00,13.79,61.3,1.34,12.09,6.62
2007-04-16 04:00,46.34,89.8,1.38,46.34,0.17
2007-04-16 05:00,62.47,107.7,1.28,59.51,-19.02
2007-04-16 06:00,60.13,111.2,1.21,56.04,-21.78
2007-04-16 07:00,18.18,153.8,1.18,8.03,-16.31
2007-04-16 08:00,19.36,260.7,1.21,-19.10,-3.14
2007-04-16 09:00,32.26,269.5,1.21,-32.26,-0.31
2007-04-16 10:00,54.85,288.4,1.21,-52.03,17.35
2007-04-16 11:00,77.43,277.2,1.24,-76.82,9.69
2007-04-16 12:00,86.23,292.3,1.34,-79.77,32.74
2007-04-16 13:00,72.15,297.2,1.38,-64.15,33.02
2007-04-16 14:00,32.85,329.9,1.38,-16.46,28.43
2007-04-16 15:00,26.98,34.2,1.38,15.18,22.31
2007-04-16 16:00,39.30,88.0,1.38,39.28,1.35
2007-04-16 17:00,68.05,103.5,1.31,66.16,-15.89
2007-04-16 18:00,58.37,116.9,1.44,52.07,-26.37
2007-04-16 19:00,30.80,127.1,1.54,24.58,-18.56
2007-04-16 20:00,26.69,242.0,1.58,-23.57,-12.52
2007-04-16 21:00,58.66,278.2,1.54,-58.05,8.41
2007-04-16 22:00,77.43,301.8,1.51,-65.81,40.81
2007-04-16 23:00,93.56,295.8,1.48,-84.22,40.76
2007-04-17 00:00,93.56,303.2,1.41,-78.28,51.25
2007-04-17 01:00,77.72,328.2,1.41,-40.99,66.04
2007-04-17 02:00,41.36,345.4,1.38,-10.45,40.01
2007-04-17 03:00,34.90,51.8,1.41,27.43,21.58
2007-04-17 04:00,35.78,106.7,1.44,34.28,-10.26
2007-04-17 05:00,36.66,132.0,1.65,27.25,-24.52
2007-04-17 06:00,54.26,144.6,1.95,31.40,-44.25
2007-04-17 07:00,39.60,177.3,2.15,1.84,-39.55
2007-04-17 08:00,24.93,223.7,2.11,-17.24,-18.01
2007-04-17 09:00,45.75,276.8,2.01,-45.43,5.45
2007-04-17 10:00,81.24,285.6,1.71,-78.24,21.89
2007-04-17 11:00,102.65,286.3,1.48,-98.51,28.87
2007-04-17 12:00,115.56,298.6,1.51,-101.42,55.39
2007-04-17 13:00,107.64,318.0,1.78,-72.06,79.97
2007-04-17 14:00,91.22,335.6,1.75,-37.74,83.04
2007-04-17 15:00,57.19,10.0,1.78,9.91,56.33
2007-04-17 16:00,53.97,88.7,1.61,53.95,1.19
2007-04-17 17:00,65.99,104.9,1.58,63.77,-16.98
2007-04-17 18:00,68.63,121.8,1.68,58.34,-36.15
2007-04-17 19:00,58.07,129.2,1.85,45.02,-36.68
2007-04-17 20:00,32.85,137.6,1.95,22.15,-24.26